Tracking 19832 objects as of 25-Aug-2019
HD Live streaming from Space Station
objects crossing your sky now

THORAD DELTA 1 DEB

Track THORAD DELTA 1 DEB now!
10-day predictions


NORAD ID: 8175
Int'l Code: 1974-089AR
Perigee: 1,286.0 km
Apogee: 1,607.2 km
Inclination: 102.6 °
Period: 114.6 minutes
Semi major axis: 7817 km
RCS: 0.0392 m2 (small)
Launch date: November 15, 1974
Source: United States (US)
Launch site: AIR FORCE WESTERN TEST RANGE (AFWTR)

Note: This is SATELLITE DEBRIS
aabbcc
Your satellite tracking list
Your tracking list is empty




NASA's NSSDC Master Catalog

Two Line Element Set (TLE):
1  8175U 74089AR  19236.23355041 -.00001224  00000-0 -65895-2 0  9999
2  8175 102.6357 334.2229 0205442  43.8156  23.7433 12.56007911 16221
Source of the keplerian elements: AFSPC